DTUSAT 1 27842U 03031C 09183.59822124 .00000004 00000-0 21825-4 0 5918 2 27842 98.7044 193.5149 0010381 78.1713 282.0621 14.20984723311533 CUTE-1 (CO-55) 1 27844U 03031E 09183.55729194 .00000033 00000-0 35778-4 0 6138 2 27844 98.7129 192.5045 0011062 97.9347 262.3085 14.20644658311447 QUAKESAT 1 27845U 03031F 09184.07447356 .00000032 00000-0 35157-4 0 5885 2 27845 98.7187 192.4271 0009889 112.2593 247.9647 14.20277133311421 AAU CUBESAT 1 27846U 03031G 09183.59783542 .00000017 00000-0 27800-4 0 5241 2 27846 98.7053 193.5085 0010366 78.3342 281.8984 14.20985048311539 CANX-1 1 27847U 03031H 09183.60659676 .00000011 00000-0 25132-4 0 5402 2 27847 98.7063 193.5083 0010323 77.1051 283.1255 14.20967078311489 CUBESAT XI-IV (CO-57) 1 27848U 03031J 09183.53697069 .00000022 00000-0 30798-4 0 5612 2 27848 98.7152 191.5459 0010655 101.3336 258.9031 14.20445968311401 UWE-1 1 28892U 05043C 09184.28173834 .00000084 00000-0 27045-4 0 3740 2 28892 98.0528 73.9071 0016497 300.1058 59.8501 14.59748072196195 CUBESAT XI-V (CO-58) 1 28895U 05043F 09181.70427705 -.00000046 00000-0 39329-7 0 3386 2 28895 98.0569 71.9423 0017055 308.6022 51.3672 14.59777704195703 NCUBE-2 1 28897U 05043H 09183.67960381 .00000093 00000-0 28887-4 0 8883 2 28897 98.0556 73.7700 0016458 303.9438 56.0192 14.59957673188283 CUTE-1.7+APD (CO-56) 1 28941U 06005C 09184.18678440 .00056557 37166-5 17405-3 0 2208 2 28941 98.1398 1.6502 0079192 72.5548 288.4364 15.86771835189786 GENESAT-1 1 29655U 06058C 09184.12752231 .00010268 00000-0 10056-3 0 7474 2 29655 40.0222 83.4110 0003533 270.7240 89.3173 15.65908659144972 CSTB1 1 31122U 07012F 09183.88774044 .00000552 00000-0 13192-3 0 6732 2 31122 97.9932 240.2933 0084739 224.2129 135.2222 14.55255153117446 MAST 1 31126U 07012K 09183.86768578 -.00000004 00000-0 98913-5 0 6323 2 31126 97.9877 237.9552 0093701 230.8532 128.4313 14.53503755117311 LIBERTAD-1 1 31128U 07012M 09183.86236853 -.00000048 00000-0 00000-0 0 6706 2 31128 97.9872 236.0811 0101681 236.5820 122.5605 14.52052287117177 POLYSAT CP3 1 31129U 07012N 09184.08906933 .00000158 00000-0 47470-4 0 379 2 31129 97.9891 236.4066 0101266 235.3832 123.7798 14.52144224117195 CAPE1 1 31130U 07012P 09183.85308816 .00000102 00000-0 34638-4 0 6389 2 31130 97.9895 236.0895 0101727 236.2457 122.9001 14.52068853116967 POLYSAT CP4 1 31132U 07012Q 09183.89202594 -.00000039 00000-0 18349-5 0 6440 2 31132 97.9930 240.2045 0084733 224.1957 135.2447 14.55214492117317 NTS (CANX-6) 1 32784U 08021B 09184.18927357 -.00000169 00000-0 -14855-4 0 4124 2 32784 97.9442 247.8233 0015446 338.3082 21.7474 14.81055464 63795 CUTE-1.7+APD II 1 32785U 08021C 09184.19967557 .00000077 00000-0 16663-4 0 4071 2 32785 97.9459 248.0358 0014512 344.4213 15.6549 14.81495353 63815 COMPASS-1 1 32787U 08021E 09183.83750027 .00000143 00000-0 25036-4 0 3982 2 32787 97.9421 247.5295 0015464 346.1395 13.9386 14.81621145 63761 AAUSAT-II 1 32788U 08021F 09183.73655105 .00000021 00000-0 94950-5 0 4015 2 32788 97.9404 247.4897 0015304 348.0106 12.0734 14.81743112 63759 DELFI-C3 1 32789U 08021G 09183.75833362 .00000534 00000-0 74474-4 0 4096 2 32789 97.9469 247.6843 0015595 345.9034 14.1740 14.81735569 63759 CANX-2 1 32790U 08021H 09184.20240190 .00000068 00000-0 15476-4 0 3964 2 32790 97.9443 248.0053 0015353 344.3246 15.7490 14.81481694 63791 SEEDS II 1 32791U 08021J 09184.21985119 .00000424 00000-0 60871-4 0 3924 2 32791 97.9442 247.9427 0016084 343.2591 16.8077 14.81450324 63785 HAWKSAT 1 1 35003U 09028C 09183.95122412 .00001206 00000-0 35111-4 0 431 2 35003 40.4694 146.0189 0029800 285.6169 74.1408 15.39900450 6786 POLYSAT CP6 1 35004U 09028D 09184.27088270 .00003141 00000-0 81213-4 0 356 2 35004 40.4593 143.9988 0029443 289.6966 70.0670 15.40136104 6820 AEROCUBE 3 1 35005U 09028E 09183.95201934 .00003444 00000-0 89027-4 0 374 2 35005 40.4735 146.0442 0029284 284.3688 75.3880 15.39957751 6776